Flag for South Africa Weather past 2 weeks in Bloemfontein, South Africa

Now
45 °F

Quite cool.


Feels Like: 45 °F
Forecast: 32 / 70 °F
Wind: 1 mph from North

Location: Bloemfontein Airport

Current Time: Jul 31, 2014 at 10:11:42 PM

Latest Report: Jul 31, 2014 at 9:00 PM


Visibility: N/A

Pressure: 30.33 "Hg

Humidity: 53%

Dew point: 28 °F

Location of BloemfonteinLocation

Historic Weather in Bloemfontein — Graph

°F

Bloemfontein temperature yesterday

Maximum temperature yesterday: 64 °F (at 2:00 PM)
Minimum temperature yesterday: 32 °F (at 5:00 AM)
Average temperature yesterday: 47 °F

Past Weeks' High & Low Weather Summary

 TemperatureHumidityPressure
High75 °F (Jul 24, 3:00 PM)87% (Jul 30, 5:00 AM)30.63 "Hg (Jul 30, 5:00 AM)
Low21 °F (Jul 27, 7:00 AM)10% (Jul 21, 5:00 PM)29.98 "Hg (Jul 25, 3:00 PM)
Average46 °F48%30.32 "Hg
* Reported Jul 16 9:00 PM — Jul 31 9:00 PM, Bloemfontein, Weather by CustomWeather, © 2014

Note: Actual official high and low records may vary slightly from our data, if they occured in-between our weather recording intervals... More about our weather records

Advertising

Bloemfontein weather history for previous 24 hours

 ConditionsComfort  
Time TempWeatherWind HumidityBarometerVisibility
9:00 PM
Jul 31
45 °FQuite cool.1 mph53%30.33 "HgN/A
8:00 PM50 °FClear.1 mph43%30.33 "Hg10 mi
7:00 PM57 °FClear.3 mph36%30.30 "Hg10 mi
6:00 PM61 °FClear.2 mph29%30.30 "Hg10 mi
5:00 PM66 °FClear.5 mph22%30.30 "Hg10 mi
4:00 PM66 °FSunny.12 mph28%30.27 "Hg10 mi
3:00 PM66 °FPassing clouds.9 mph28%30.30 "HgN/A
2:00 PM66 °FSunny.7 mph24%30.33 "Hg10 mi
12:00 PM64 °FPassing clouds.6 mph34%30.36 "HgN/A
11:00 AM59 °FSunny.3 mph39%30.39 "Hg10 mi
10:00 AM52 °FSunny.1 mph47%30.39 "Hg10 mi
9:45 AM52 °FSunny.1 mph50%30.39 "Hg10 mi
9:00 AM45 °FSunny.2 mph57%30.39 "Hg10 mi
8:00 AM39 °FSunny.No wind70%30.42 "Hg10 mi
7:00 AM36 °FSunny.No wind70%30.36 "Hg10 mi
6:00 AM36 °FSunny.1 mph75%30.36 "Hg10 mi
5:00 AM32 °FClear.No wind80%30.39 "Hg10 mi
2:00 AM34 °FChilly.No wind81%30.39 "HgN/A
11:00 PM
Jul 30
39 °FChilly.No wind70%30.42 "HgN/A
Weather by CustomWeather, © 2014

See weather overviewHow to use our weather pages